Regional Weather Roundup
Issued by NWS Newport/Morehead, NC

Current Version | Previous Version | Graphics & Text | Print | Product List | Glossary Off
Versions: 1 2 3 4 5 6 7 8 9 10 11 12 13 14 15 16 17 18 19 20 21 22 23 24 25 26 27 28 29 30 31 32 33 34 35 36 37 38 39 40 41 42 43 44 45 46 47 48 49 50

000
ASUS42 KMHX 012122
RWRMHX
WEATHER ROUNDUP FOR EASTERN NORTH CAROLINA
NATIONAL WEATHER SERVICE NEWPORT/MOREHEAD CITY NC
500 PM EDT FRI AUG 01 2014

NOTE: "FAIR" INDICATES FEW OR NO CLOUDS BELOW 12,000 FEET
WITH NO SIGNIFICANT WEATHER AND/OR OBSTRUCTIONS TO VISIBILITY

NCZ015>017-031-032-045>047-102-103-012200-
NORTH COAST

CITY           SKY/WX    TMP DP  RH WIND       PRES   REMARKS
EDENTON        CLOUDY    72  70  94 NE5       30.09S
ELIZABETH CITY HVY RAIN  71  68  90 E9        30.10S FOG
KITTY HAWK     RAIN      73  71  95 SE3       30.11R
MANTEO         NOT AVBL

$$

NCZ045>047-081-094-103-104-012200-
CENTRAL COAST

CITY           SKY/WX    TMP DP  RH WIND       PRES   REMARKS
FRISCO         LGT RAIN  74  74 100 SE12      30.12R FOG
SWANQUARTER      N/A     73 N/A N/A E9        30.06S

$$

NCZ095-097-098-100-101-012200-
SOUTHERN COAST

CITY           SKY/WX    TMP DP  RH WIND       PRES   REMARKS
BEAUFORT       CLOUDY    76  73  91 SE6       30.06F
CEDAR ISLAND     N/A     75 N/A N/A E10G20    30.12S
JACKSONVILLE   CLOUDY    79  74  84 SE9       30.04F
NEWPORT        NOT AVBL
PINEY ISLAND   CLOUDY    74  74 100 SE15G21   30.08
WILMINGTON     CLOUDY    80  72  76 S8        30.03F


$$

NCZ011>013-027>030-043-044-078>080-089-090>093-098-012200-
COASTAL PLAIN

CITY           SKY/WX    TMP DP  RH WIND       PRES   REMARKS
AHOSKIE        CLOUDY    66  64  92 N9        30.11F
CLINTON        CLOUDY    76  75  97 CALM      30.03F
ELIZABETHTOWN  CLOUDY    78  76  92 CALM      30.02F
GOLDSBORO      LGT RAIN  73  72  94 SW6       30.02F
GREENVILLE     CLOUDY    70  68  94 NE7       30.09F FOG
HAVELOCK       CLOUDY    77  73  87 E12       30.07F
KENANSVILLE    CLOUDY    76  73  91 CALM      30.04F
KINSTON        HVY RAIN  75  73  94 E9        30.06F
NEW BERN       CLOUDY    78  72  81 SE9       30.07F
RICHLANDS      CLOUDY    77  73  88 E7        30.04F
ROANOKE RAPIDS NOT AVBL
ROCKY MOUNT    LGT RAIN  68  66  93 NE9       30.08F FOG
WASHINGTON     CLOUDY    74  72  92 E3        30.07F
WHITEVILLE     CLOUDY    80  73  79 S12       30.02S

$$

AMZ130-135-150-152-154-156-158-170-250-252-270-ANZ085-086-088-633-658-670-012200-
MARINE OBSERVATIONS

STATION/POSITION TIME  TEMP    WIND        PRES    WAVE   SWELL
                       AIR SEA DIR/SP/G            HT/PER HT/PER
                 (UTC) (F)     (DEG/KT/KT) (MB)    (FT/S) (FT/S)
CHESAPEAKE LIGHT NOT AVBL
BUOY 44014       2100   75 78   70/ 17/ 19 1019.5    3/ 8   2/ 8
DUCK             2100   74 76  130/ 15/ 19 1018.6
2E DUCK          2100                        N/A     4/ 5
OREGON INLET     2100   72 78  140/  4/  6 1020.1
BUOY 44095       2100      78                N/A     3/ 6
20E OREGON INLET NOT AVBL
HATTERAS CG      2100   75 79  120/  7/ 11 1019.7
DIAMOND BUOY     2100          VRB  4/  6  1019.4    3/ 6   3/ 6
CAPE LOOKOUT     2100   76     130/  8/  9 1018.3
BEAUFORT LAB     2100   75 80  120/  7/  7 1017.5
30 SE NEW RIVER  2100   79 81  180/ 10/ 12 1018.1    4/ 5   3/ 5
5 SE WRIGHTSVILL 2100   76 81  210/ 14/ 16   N/A
BUOY 41002       1953   81 81  150/ 10/ 12 1019.3    4/ 6   3/ 6
BUOY 41004       2100   80 82  160/ 16/ 19 1014.6    4/ 6   2/ 8

$$


USA.gov is the U.S. government's official web portal to all federal, state and local government web resources and services.